Location: Edinburgh
(55.9500°N, 3.1600°W)
Time: 06:01:46
(UTC+01:00)

Vanguard 1 Rocket - Visible Passes

Search period start: 21 October 2017 00:00
Search period end: 30 October 2017 23:00
Orbit: 655 x 4222 km, 34.3° (Epoch: 20 October)

Date Brightness Start Highest point End Pass type
(mag) Time Alt. Az. Time Alt. Az. Time Alt. Az.
27 Oct 10.5 06:24:31 10° SSW 06:27:55 12° S 06:30:45 10° SSE visible
28 Oct 10.7 05:13:41 10° S 05:17:01 11° SSE 05:19:53 10° SSE visible
29 Oct 10.3 05:25:04 10° SSW 05:30:44 15° S 05:35:03 10° SE visible
30 Oct 10.5 04:13:06 10° SSW 04:19:49 15° S 04:24:52 10° SE visible
30 Oct 10.1 06:39:11 10° SW 06:44:10 15° SSW 06:47:59 10° SSE visible
